STARLINK-37975, 69707

Orbit data source: Space-Track

STARLINK-37975, 69707 is a payload satellite owned by SpaceX/Seattle (US) in SSO that was launched on Sun, 28 Jun 2026 UTC via an FALCON 9 launch vehicle from the Air Force Western Test Range (AFWTR). Payload-class satellites include a variety of spacecraft equipped with specific instruments for various scientific and technological missions. These include communications satellites like Starlink; space stations such as the ISS; scientific satellites like the Hubble; Earth observation satellites from companies like Planet Labs, Umbra, and HawkEye 360; GPS; miniature CubeSats for education and research; and military/defense satellites.

Loading next visibility...
Identifier
69707, 2026-147D
Orbit
SSO
Country
Flag of USUS
Related business
Manufacturer
SpaceX/Seattle
Mission
Operational Commercial Communications
Bus & Motor
STARLINK V2MO, Unknown motor
Mass
575 kg wet, ~530 kg dry
Launch date (UTC)
2026-06-28 (2 months ago)
Launch vehicle
FALCON 9
Launch site
Air Force Western Test Range (AFWTR)
Object type
Payload
Rocket body
Debris
Shape & HBR
Box + 1 Pan, 17.7 m
Radar Cross Section
41.120 m², Large (>1 m²)

Expand to show TLE details & history
Last TLE update: 19 hours ago

TLE from 19 hours ago
0 STARLINK-37975
1 69707U 26147D   26236.57509232  .00016947  00000-0  52569-3 0  9998
2 69707  97.2832 273.2668 0002887  87.7800 272.3773 15.33465456 10106
Epoch: 2026-08-24T13:48Z
TLE epoch observation values (Epoch: 2026-08-24T13:48:07.976Z)
Latitude
-0.00005°
Longitude
93.37874°
Altitude
468.513 km
Speed
7.632 km/s
True Right ascension
18h 13m 04s
True Declination
0° 00' 00"
Sunlit
Object was in full shadow at epoch
Visualization orbit readout
Latitude
Unknown
Longitude
Unknown
Altitude
Unknown
Speed
Unknown
Apparent Right ascension
Unknown
Apparent Declination
Unknown
Sunlit
N/A
Visualization observer readout
Local Sidereal Time
00:14:26
Azimuth
Unknown
Elevation
Unknown
Doppler factor
Unknown
Orbital elements
Apogee altitude
464.4 km
Perigee altitude
460.45 km
Semi-major axis
6,840.562 km
Eccentricity
0.00029
Inclination
97.2832°
RAAN
273.2668°
Arg. of periapsis
87.78°
True anomaly
272.34425°
Mean anomaly
272.3773°
Eccentric anomaly
272.36077°
Mean motion
3.83624 °/min
Orbital period
93.84 mins
BSTAR
0.00052569
Loading maneuver chart data...
Computing Atmospheric mass density...
Loading historical data...
Loading historical data...
Loading historical data...
Loading historical data...
Loading historical data...
Loading historical data...
Loading historical data...

Documentation

Showing up to 5 results
|